EW6288 Weather Reports


Display with metric or nautical units.
time (UTC)temp
F
wind
direction
speed
MPH
gust
MPH
rain 1hr
in
rain 24hr
in
rain mn
in
humidity
%
barometer
mb
20260505224015 83 192 2.0 7.0 0.00 0.00 0.00 78 1006.5
20260505223245 83 195 2.0 7.0 0.00 0.00 0.00 78 1006.6
20260505222741 83 119 2.0 7.0 0.00 0.00 0.00 77 1006.5
20260505222242 83 153 2.0 9.0 0.00 0.00 0.00 78 1006.5
20260505221741 83 203 3.0 10.0 0.00 0.00 0.00 78 1006.5
20260505221229 83 143 3.0 10.0 0.00 0.00 0.00 78 1006.6
20260505220726 83 167 3.0 10.0 0.00 0.00 0.00 78 1006.6
20260505220229 83 179 3.0 11.0 0.00 0.00 0.00 78 1006.7
20260505215726 83 147 3.0 11.0 0.00 0.00 0.00 77 1006.7
20260505215228 83 106 3.0 13.0 0.00 0.00 0.00 77 1006.8
20260505215224 84 182 2.0 13.0 0.00 0.00 0.00 77 1006.7
20260505214229 84 163 3.0 13.0 0.00 0.00 0.00 76 1006.8
20260505213952 84 150 2.0 13.0 0.00 0.00 0.00 77 1006.8
20260505213451 84 222 2.0 8.0 0.00 0.00 0.00 76 1006.9
20260505212721 84 148 2.0 9.0 0.00 0.00 0.00 77 1007.0
20260505212452 84 172 2.0 9.0 0.00 0.00 0.00 77 1007.0
20260505211719 84 191 3.0 9.0 0.00 0.00 0.00 76 1007.0
20260505211217 84 238 3.0 8.0 0.00 0.00 0.00 76 1007.1
20260505210718 84 140 3.0 8.0 0.00 0.00 0.00 77 1007.1
20260505210216 84 135 3.0 8.0 0.00 0.00 0.00 77 1007.2
20260505205945 84 171 3.0 8.0 0.00 0.00 0.00 77 1007.3
20260505205445 83 150 2.0 8.0 0.00 0.00 0.00 78 1007.4
20260505204717 83 160 2.0 7.0 0.00 0.00 0.00 78 1007.4
20260505204212 83 164 2.0 8.0 0.00 0.00 0.00 78 1007.5
20260505203713 83 246 2.0 8.0 0.00 0.00 0.00 78 1007.5
20260505203213 83 124 1.0 8.0 0.00 0.00 0.00 78 1007.7
20260505202711 83 100 2.0 8.0 0.00 0.00 0.00 77 1007.7
20260505202209 83 231 2.0 8.0 0.00 0.00 0.00 77 1007.8
20260505201707 83 200 2.0 8.0 0.00 0.00 0.00 78 1008.0
20260505201208 83 158 2.0 7.0 0.00 0.00 0.00 77 1008.0
20260505200708 83 219 2.0 6.0 0.00 0.00 0.00 77 1007.9
20260505200206 83 188 2.0 7.0 0.00 0.00 0.00 77 1008.0
20260505195708 84 144 2.0 7.0 0.00 0.00 0.00 77 1008.1
20260505195207 83 209 3.0 7.0 0.00 0.00 0.00 77 1008.1
20260505194939 83 90 2.0 7.0 0.00 0.00 0.00 78 1008.1
20260505194438 83 138 2.0 8.0 0.00 0.00 0.00 78 1008.2
20260505193700 82 142 3.0 8.0 0.00 0.00 0.00 78 1008.3
20260505193157 83 198 2.0 8.0 0.00 0.00 0.00 78 1008.3
20260505192656 83 197 2.0 8.0 0.00 0.00 0.00 78 1008.3
20260505192201 83 190 3.0 10.0 0.00 0.00 0.00 78 1008.5
20260505192157 83 134 2.0 8.0 0.00 0.00 0.00 78 1008.4
20260505191158 82 127 2.0 10.0 0.00 0.00 0.00 78 1008.5
20260505190921 82 42 2.0 6.0 0.00 0.00 0.00 79 1008.5
20260505190151 82 122 2.0 8.0 0.00 0.00 0.00 80 1008.5
20260505185650 81 156 2.0 8.0 0.00 0.00 0.00 80 1008.6
20260505185150 81 168 2.0 5.0 0.00 0.00 0.00 80 1008.6
20260505184650 82 166 2.0 11.0 0.00 0.00 0.00 80 1008.7
20260505184424 82 140 2.0 11.0 0.00 0.00 0.00 80 1008.7
20260505183651 82 163 3.0 11.0 0.00 0.00 0.00 80 1008.7
20260505183146 81 149 3.0 11.0 0.00 0.00 0.00 81 1008.7
20260505182646 81 177 2.0 8.0 0.00 0.00 0.00 82 1008.7
20260505182146 80 159 2.0 8.0 0.00 0.00 0.00 82 1008.8
20260505181646 80 130 3.0 7.0 0.00 0.00 0.00 82 1008.9
20260505181146 80 159 2.0 7.0 0.00 0.00 0.00 82 1008.9
20260505180648 80 146 2.0 7.0 0.00 0.00 0.00 82 1008.9
20260505180417 80 171 2.0 6.0 0.00 0.00 0.00 82 1009.0
20260505175647 80 137 2.0 5.0 0.00 0.00 0.00 82 1009.0
20260505175144 80 140 1.0 7.0 0.00 0.00 0.00 82 1009.0
20260505174913 80 147 1.0 7.0 0.00 0.00 0.00 82 1009.1
20260505174142 80 144 2.0 7.0 0.00 0.00 0.00 82 1009.2
20260505173644 80 99 1.0 7.0 0.00 0.00 0.00 82 1009.2
20260505173141 80 119 2.0 7.0 0.00 0.00 0.00 82 1009.2
20260505172911 80 131 2.0 7.0 0.00 0.00 0.00 82 1009.2
20260505172409 79 109 2.0 7.0 0.00 0.00 0.00 83 1009.2
20260505171638 79 138 1.0 7.0 0.00 0.00 0.00 83 1009.1
20260505171143 79 174 1.0 6.0 0.00 0.00 0.00 83 1009.5
20260505171139 79 159 1.0 6.0 0.00 0.00 0.00 83 1009.4
20260505170135 79 200 1.0 7.0 0.00 0.00 0.00 83 1009.5
20260505165909 79 148 0.0 7.0 0.00 0.00 0.00 83 1009.5
20260505165138 79 148 1.0 8.0 0.00 0.00 0.00 83 1009.5
20260505164632 79 111 1.0 8.0 0.00 0.00 0.00 83 1009.5
20260505164132 79 117 2.0 8.0 0.00 0.00 0.00 83 1009.5
20260505163903 79 179 2.0 8.0 0.00 0.00 0.00 83 1009.4
20260505163132 79 184 2.0 6.0 0.00 0.00 0.00 83 1009.4
20260505162900 79 126 2.0 6.0 0.00 0.00 0.00 83 1009.4
20260505162132 79 155 3.0 9.0 0.00 0.00 0.00 83 1009.4
20260505161622 78 146 2.0 9.0 0.00 0.00 0.00 83 1009.2
20260505161123 78 127 2.0 7.0 0.00 0.00 0.00 84 1009.2
20260505160621 78 150 2.0 7.0 0.00 0.00 0.00 84 1009.2
20260505160351 78 157 2.0 7.0 0.00 0.00 0.00 84 1009.2
20260505153118 77 178 2.0 5.0 0.00 0.00 0.00 85 1009.0
20260505152617 77 126 2.0 9.0 0.00 0.00 0.00 85 1009.1
20260505152116 77 212 2.0 9.0 0.00 0.00 0.00 85 1009.0
20260505151616 77 157 2.0 10.0 0.00 0.00 0.00 85 1009.0
20260505151347 77 82 1.0 10.0 0.00 0.00 0.00 85 1009.0
20260505150615 77 300 1.0 6.0 0.00 0.00 0.00 85 1009.0
20260505150346 77 162 1.0 6.0 0.00 0.00 0.00 85 1009.0
20260505124550 74 0 1.0 4.0 0.00 0.00 0.00 86 1008.6
20260505124048 74 0 1.0 4.0 0.00 0.00 0.00 86 1008.6
20260505123816 74 0 1.0 5.0 0.00 0.00 0.00 86 1008.6
20260505123317 74 0 1.0 5.0 0.00 0.00 0.00 86 1008.6
20260505122544 74 0 1.0 5.0 0.00 0.00 0.00 86 1008.5
20260505122040 74 0 1.0 6.0 0.00 0.00 0.00 86 1008.5
20260505121540 74 0 1.0 6.0 0.00 0.00 0.00 86 1008.3
20260505121041 74 0 1.0 5.0 0.00 0.00 0.00 86 1008.1
20260505120539 74 0 2.0 5.0 0.00 0.00 0.00 86 1008.0
20260505120036 74 0 2.0 6.0 0.00 0.00 0.00 86 1007.9
20260505115535 74 0 2.0 6.0 0.00 0.00 0.00 86 1008.0
20260505115307 74 0 1.0 5.0 0.00 0.00 0.00 86 1008.3
20260505114808 74 0 1.0 5.0 0.00 0.00 0.00 86 1008.5
20260505114037 74 0 2.0 8.0 0.00 0.00 0.00 86 1008.5
20260505113532 74 0 2.0 8.0 0.00 0.00 0.00 86 1008.4
20260505113031 74 0 2.0 8.0 0.00 0.00 0.00 86 1008.4
20260505112529 74 0 2.0 8.0 0.00 0.00 0.00 86 1008.2
20260505112027 74 0 2.0 5.0 0.00 0.00 0.00 86 1008.2
20260505111759 74 0 2.0 4.0 0.00 0.00 0.00 86 1008.1
20260505111645 74 0 2.0 4.0 0.00 0.00 0.00 85 1008.1
20260505110523 74 0 1.0 4.0 0.00 0.00 0.00 85 1008.0
20260505101516 73 0 1.0 4.0 0.00 0.00 0.00 85 1008.2
20260505101020 73 0 1.0 3.0 0.00 0.00 0.00 85 1008.5
20260505101016 73 0 1.0 4.0 0.00 0.00 0.00 85 1008.3
20260505100012 73 0 1.0 3.0 0.00 0.00 0.00 85 1008.5
20260505095517 73 0 1.0 5.0 0.00 0.00 0.00 85 1008.2
20260505095512 73 0 1.0 5.0 0.00 0.00 0.00 85 1008.4
20260505094508 73 0 1.0 5.0 0.00 0.00 0.00 85 1008.1
20260505094239 73 0 1.0 6.0 0.00 0.00 0.00 85 1008.2
20260505093508 73 0 1.0 6.0 0.00 0.00 0.00 85 1008.4
20260505093007 73 0 1.0 6.0 0.00 0.00 0.00 85 1008.3
20260505093002 73 0 1.0 6.0 0.00 0.00 0.00 85 1008.4
20260505092000 73 0 1.0 4.0 0.00 0.00 0.00 85 1008.6
20260505091504 73 0 1.0 5.0 0.00 0.00 0.00 84 1008.6
20260505091500 73 0 1.0 4.0 0.00 0.00 0.00 84 1008.6
20260505090501 73 0 1.0 5.0 0.00 0.00 0.00 84 1008.6
20260505085958 73 0 1.0 5.0 0.00 0.00 0.00 84 1008.6
20260505085459 73 0 1.0 4.0 0.00 0.00 0.00 84 1008.6
20260505084957 73 0 1.0 4.0 0.00 0.00 0.00 84 1008.6
20260505084457 73 0 1.0 4.0 0.00 0.00 0.00 84 1008.6
20260505083957 73 0 1.0 3.0 0.00 0.00 0.00 84 1008.6
20260505083728 73 0 0.0 3.0 0.00 0.00 0.00 83 1008.6
20260505083001 73 0 1.0 5.0 0.00 0.00 0.00 83 1008.8
20260505082956 73 0 0.0 3.0 0.00 0.00 0.00 83 1008.7
20260505082225 73 0 1.0 5.0 0.00 0.00 0.00 83 1008.8
20260505081451 73 0 1.0 5.0 0.00 0.00 0.00 83 1008.9
20260505080952 73 0 1.0 5.0 0.00 0.00 0.00 83 1008.9
20260505080455 73 0 1.0 3.0 0.00 0.00 0.00 83 1009.0
20260505080450 73 0 1.0 4.0 0.00 0.00 0.00 83 1008.9
20260505075450 73 0 1.0 4.0 0.00 0.00 0.00 83 1009.0
20260505074951 73 0 2.0 6.0 0.00 0.00 0.00 83 1009.0
20260505074448 73 0 2.0 6.0 0.00 0.00 0.00 83 1009.0
20260505073951 73 0 2.0 6.0 0.00 0.00 0.00 83 1009.1
20260505073443 73 0 2.0 10.0 0.00 0.00 0.00 83 1009.1
20260505073215 73 0 2.0 10.0 0.00 0.00 0.00 83 1009.1
20260505072447 73 0 2.0 10.0 0.00 0.00 0.00 83 1009.1
20260505071943 73 0 2.0 10.0 0.00 0.00 0.00 82 1009.1
20260505071442 73 0 1.0 5.0 0.00 0.00 0.00 82 1009.2
20260505071214 73 0 1.0 4.0 0.00 0.00 0.00 82 1009.2
20260505070715 73 0 2.0 6.0 0.00 0.00 0.00 82 1009.4
20260505070213 73 0 1.0 6.0 0.00 0.00 0.00 82 1009.4
20260505065427 73 0 2.0 6.0 0.00 0.00 0.00 82 1009.5
20260505064931 73 0 1.0 5.0 0.00 0.00 0.00 81 1009.7
20260505064927 73 0 1.0 6.0 0.00 0.00 0.00 82 1009.5
20260505063921 73 0 2.0 5.0 0.00 0.00 0.00 81 1009.7
20260505063421 73 0 1.0 4.0 0.00 0.00 0.00 81 1009.9
20260505062920 73 0 1.0 5.0 0.00 0.00 0.00 81 1010.0
20260505062420 73 0 1.0 5.0 0.00 0.00 0.00 81 1010.1
20260505061919 73 0 0.0 4.0 0.00 0.00 0.00 81 1010.1
20260505061418 73 0 1.0 4.0 0.00 0.00 0.00 81 1010.3
20260505060918 73 0 2.0 5.0 0.00 0.00 0.00 80 1010.3
20260505060419 73 0 1.0 5.0 0.00 0.00 0.00 80 1010.1
20260505060149 73 0 1.0 3.0 0.00 0.00 0.00 81 1010.2
20260505055648 73 0 2.0 6.0 0.00 0.00 0.00 80 1010.2
20260505054917 73 0 2.0 6.0 0.00 0.00 0.00 80 1010.1
20260505054416 73 0 2.0 6.0 0.00 0.00 0.00 80 1010.1
20260505053916 73 0 2.0 6.0 0.00 0.00 0.00 80 1010.2
20260505053418 73 0 1.0 4.0 0.00 0.00 0.00 80 1010.4
20260505052915 73 0 1.0 4.0 0.00 0.00 0.00 80 1010.4
20260505052415 73 0 1.0 8.0 0.00 0.00 0.00 79 1010.6
20260505052143 73 0 1.0 8.0 0.00 0.00 0.00 79 1010.5
20260505051641 73 0 1.0 6.0 0.00 0.00 0.00 79 1010.5
20260505050909 73 0 1.0 5.0 0.00 0.00 0.00 79 1010.5
20260505050410 74 0 1.0 3.0 0.00 0.00 0.00 79 1010.5
20260505050141 74 0 1.0 3.0 0.00 0.00 0.00 79 1010.5
20260505041407 74 0 2.0 5.0 0.00 0.00 0.00 78 1010.5
20260505040905 74 0 1.0 4.0 0.00 0.00 0.00 78 1010.8
20260505040406 74 0 1.0 9.0 0.00 0.00 0.00 78 1010.9
20260505040137 74 0 1.0 9.0 0.00 0.00 0.00 78 1010.8
20260505035636 74 0 2.0 9.0 0.00 0.00 0.00 78 1010.7
20260505034903 75 0 2.0 9.0 0.00 0.00 0.00 78 1011.0
20260505034405 75 0 2.0 11.0 0.00 0.00 0.00 78 1011.0
20260505033903 75 0 2.0 11.0 0.00 0.00 0.00 78 1011.0
20260505033401 75 0 2.0 10.0 0.00 0.00 0.00 77 1011.0
20260505032900 75 0 2.0 10.0 0.00 0.00 0.00 77 1011.1
20260505032357 75 0 3.0 10.0 0.00 0.00 0.00 77 1011.0
20260505031855 75 0 2.0 8.0 0.00 0.00 0.00 77 1010.9
20260505031352 75 0 2.0 8.0 0.00 0.00 0.00 77 1010.9
20260505030851 75 0 3.0 8.0 0.00 0.00 0.00 77 1010.9
20260505030349 75 0 2.0 9.0 0.00 0.00 0.00 77 1010.9
20260505025850 75 0 3.0 9.0 0.00 0.00 0.00 77 1010.9
20260505025618 75 0 2.0 11.0 0.00 0.00 0.00 77 1011.0
20260505024846 75 0 2.0 11.0 0.00 0.00 0.00 77 1011.0
20260505024347 76 0 2.0 6.0 0.00 0.00 0.00 77 1011.0
20260505023847 76 0 2.0 6.0 0.00 0.00 0.00 76 1010.9
20260505023345 76 0 2.0 9.0 0.00 0.00 0.00 76 1010.9
20260505022848 76 0 2.0 10.0 0.00 0.00 0.00 76 1010.7
20260505022843 76 0 2.0 9.0 0.00 0.00 0.00 76 1010.8
20260505021839 76 0 3.0 10.0 0.00 0.00 0.00 76 1010.8
20260505021335 76 0 2.0 9.0 0.00 0.00 0.00 75 1010.8
20260505020836 76 0 2.0 9.0 0.00 0.00 0.00 75 1010.8
20260505020333 76 0 3.0 8.0 0.00 0.00 0.00 75 1010.7
20260505015835 76 0 3.0 8.0 0.00 0.00 0.00 75 1010.7
20260505015333 76 0 2.0 13.0 0.00 0.00 0.00 75 1010.6
20260505014836 76 0 1.0 13.0 0.00 0.00 0.00 74 1010.6
20260505014333 76 0 2.0 13.0 0.00 0.00 0.00 74 1010.6
20260505013835 77 0 3.0 13.0 0.00 0.00 0.00 74 1010.6
20260505013829 77 0 2.0 8.0 0.00 0.00 0.00 74 1010.6
20260505013100 77 0 2.0 9.0 0.00 0.00 0.00 74 1010.4
20260505012327 77 0 2.0 10.0 0.00 0.00 0.00 73 1010.3
20260505011829 77 0 2.0 10.0 0.00 0.00 0.00 73 1010.2
20260505011558 77 0 2.0 10.0 0.00 0.00 0.00 73 1010.4
20260505010826 77 0 2.0 10.0 0.00 0.00 0.00 72 1010.4
20260505010327 77 0 2.0 8.0 0.00 0.00 0.00 72 1010.3
20260505005819 78 0 2.0 8.0 0.00 0.00 0.00 72 1010.2
20260505005318 78 0 2.0 9.0 0.00 0.00 0.00 72 1010.1
20260505004819 78 0 2.0 9.0 0.00 0.00 0.00 72 1010.2
20260505004317 78 0 2.0 8.0 0.00 0.00 0.00 71 1010.1
20260505003816 78 0 3.0 8.0 0.00 0.00 0.00 71 1010.1
20260505003314 78 159 3.0 9.0 0.00 0.00 0.00 71 1010.0
20260505002809 78 177 3.0 10.0 0.00 0.00 0.00 71 1010.1
20260505002542 78 211 3.0 10.0 0.00 0.00 0.00 71 1010.1
20260505001809 78 93 3.0 10.0 0.00 0.00 0.00 71 1010.0
20260505001302 78 138 3.0 10.0 0.00 0.00 0.00 71 1010.0
20260505000803 78 175 3.0 9.0 0.00 0.00 0.00 71 1010.1
20260505000305 78 165 4.0 9.0 0.00 0.00 0.00 71 1010.1
20260504235801 78 132 4.0 12.0 0.00 0.00 0.00 71 1010.1
20260504235304 78 159 3.0 12.0 0.00 0.00 0.00 71 1010.2
20260504234801 78 150 3.0 12.0 0.00 0.00 0.00 71 1010.3
20260504234301 78 166 3.0 12.0 0.00 0.00 0.00 71 1010.4
20260504233759 78 172 3.0 9.0 0.00 0.00 0.00 70 1010.5
20260504233301 79 169 2.0 10.0 0.00 0.00 0.00 70 1010.5
20260504232759 79 129 2.0 10.0 0.00 0.00 0.00 71 1010.6
20260504232530 78 178 3.0 10.0 0.00 0.00 0.00 71 1010.6
20260504231758 78 198 3.0 10.0 0.00 0.00 0.00 71 1010.5
20260504231258 79 162 2.0 8.0 0.00 0.00 0.00 70 1010.7
20260504230755 79 200 2.0 10.0 0.00 0.00 0.00 70 1010.7
20260504230256 79 179 2.0 10.0 0.00 0.00 0.00 70 1010.8
20260504230026 79 190 2.0 9.0 0.00 0.00 0.00 70 1010.8
20260504225914 79 129 3.0 11.0 0.00 0.00 0.00 69 1010.9
20260504224753 79 163 2.0 11.0 0.00 0.00 0.00 69 1010.9
20260504224256 79 160 3.0 11.0 0.00 0.00 0.00 69 1010.8